Moore, Oklahoma, United States
Lat: 35.34N, Lon: 97.49W
Wx Zone: OKZ029
Local Info
Past Weather Observations for Friday, May 22, 2015

NOTE: This archive is for the closest National Weather Service station to Moore. Information may differ from the station used for current weather conditions.

Click here for Long-term Archive

Time Weather Temperature Dewpoint Humidity Pressure Winds Precip Visibility
23:52
Overcast
Light Rain
57°F / 14°C 55°F / 13°C 94% 30.12 in
(1020 mb)
SE 8.1 mph
(SE 13 kph)
0.02 in
(0.51 mm)
4SM
23:28
Overcast
Light Rain
57°F / 14°C 55°F / 13°C 94% 30.12 in
(1020 mb)
SE 10.4 mph
(SE 17 kph)
0.01 in
(0.25 mm)
5SM
22:52
Overcast
Drizzle
57°F / 14°C 55°F / 13°C 94% 30.15 in
(1021 mb)
SE 10.4 mph
(SE 17 kph)
0.00 in
(0.00 mm)
3SM
21:52
Overcast
Drizzle
55°F / 13°C 55°F / 13°C 100% 30.15 in
(1021 mb)
SE 11.5 mph
(SE 19 kph)
0.00 in
(0.00 mm)
5SM
21:22
Overcast
Drizzle
55°F / 13°C 54°F / 12°C 94% 30.15 in
(1021 mb)
SE 10.4 mph
(SE 17 kph)
0.00 in
(0.00 mm)
6SM
20:52
Overcast
Fog And Mist
55°F / 13°C 54°F / 12°C 94% 30.12 in
(1020 mb)
SE 9.2 mph
(SE 15 kph)
0.00 in
(0.00 mm)
6SM
19:52
Overcast
Drizzle
55°F / 13°C 54°F / 12°C 94% 30.15 in
(1021 mb)
SE 8.1 mph
(SE 13 kph)
0.00 in
(0.00 mm)
6SM
18:52
Overcast
Fog And Mist
55°F / 13°C 54°F / 12°C 94% 30.12 in
(1020 mb)
SE 9.2 mph
(SE 15 kph)
- 6SM
17:52
Overcast
Fog And Mist
55°F / 13°C 54°F / 12°C 94% 30.12 in
(1020 mb)
SE 8.1 mph
(SE 13 kph)
0.00 in
(0.00 mm)
6SM
17:36
Overcast
Drizzle
55°F / 13°C 54°F / 12°C 94% 30.12 in
(1020 mb)
SE 11.5 mph
(SE 19 kph)
0.00 in
(0.00 mm)
5SM
17:24
Overcast
Drizzle
55°F / 13°C 54°F / 12°C 94% 30.12 in
(1020 mb)
SE 15 mph
(SE 24 kph)
0.00 in
(0.00 mm)
2SM
16:52
Overcast
Drizzle
55°F / 13°C 54°F / 12°C 94% 30.15 in
(1021 mb)
SE 10.4 mph
(SE 17 kph)
0.01 in
(0.25 mm)
1 3/4SM
16:40
Overcast
Drizzle
55°F / 13°C 54°F / 12°C 94% 30.15 in
(1021 mb)
SE 9.2 mph
(SE 15 kph)
0.01 in
(0.25 mm)
3SM
15:52
Overcast
Drizzle
55°F / 13°C 54°F / 12°C 94% 30.15 in
(1021 mb)
SE 8.1 mph
(SE 13 kph)
0.00 in
(0.00 mm)
2SM
15:26
Overcast
Drizzle
55°F / 13°C 54°F / 12°C 94% 30.15 in
(1021 mb)
SE 8.1 mph
(SE 13 kph)
0.00 in
(0.00 mm)
2 1/2SM
14:52
Overcast
55°F / 13°C 54°F / 12°C 94% 30.15 in
(1021 mb)
SE 11.5 mph
(SE 19 kph)
- 10SM
14:06
Overcast
55°F / 13°C 54°F / 12°C 94% 30.15 in
(1021 mb)
ESE 13.8 mph
(ESE 22 kph)
- 10SM
13:52
Overcast
55°F / 13°C 54°F / 12°C 94% 30.18 in
(1022 mb)
SE 13.8 mph
(SE 22 kph)
0.00 in
(0.00 mm)
10SM
13:16
Overcast
Light Rain
57°F / 14°C 54°F / 12°C 88% 30.18 in
(1022 mb)
SSE 12.7 mph
(SSE 20 kph)
0.00 in
(0.00 mm)
10SM
13:08
Overcast
Light Rain
57°F / 14°C 55°F / 13°C 94% 30.18 in
(1022 mb)
SE 11.5 mph
(SE 19 kph)
0.00 in
(0.00 mm)
10SM
12:52
Overcast
Light Rain
57°F / 14°C 54°F / 12°C 88% 30.15 in
(1021 mb)
SE 17.3 mph
(SE 28 kph)
0.01 in
(0.25 mm)
10SM
12:49
Overcast
Light Rain
55°F / 13°C 54°F / 12°C 94% 30.15 in
(1021 mb)
SE 18.4 mph
(SE 30 kph)
0.01 in
(0.25 mm)
10SM
12:28
Overcast
Light Rain
55°F / 13°C 54°F / 12°C 94% 30.18 in
(1022 mb)
SE 17.3 mph
(SE 28 kph)
0.01 in
(0.25 mm)
10SM
12:14
Overcast
Light Rain
57°F / 14°C 55°F / 13°C 94% 30.18 in
(1022 mb)
SSE 11.5 mph
(SSE 19 kph)
0.01 in
(0.25 mm)
10SM
11:52
Overcast
Rain
55°F / 13°C 54°F / 12°C 94% 30.18 in
(1022 mb)
SSE 11.5 mph
(SSE 19 kph)
0.03 in
(0.76 mm)
5SM
10:52
Overcast
Light Rain
55°F / 13°C 54°F / 12°C 94% 30.21 in
(1023 mb)
SSE 9.2 mph
(SSE 15 kph)
0.01 in
(0.25 mm)
8SM
09:52
Overcast
57°F / 14°C 55°F / 13°C 94% 30.18 in
(1022 mb)
SSE 11.5 mph
(SSE 19 kph)
0.00 in
(0.00 mm)
10SM
09:48
Overcast
57°F / 14°C 55°F / 13°C 94% 30.18 in
(1022 mb)
SE 12.7 mph
(SE 20 kph)
0.00 in
(0.00 mm)
10SM
09:31
Overcast
57°F / 14°C 55°F / 13°C 94% 30.18 in
(1022 mb)
SE 16.1 mph
(SE 26 kph)
0.00 in
(0.00 mm)
10SM
08:52
Overcast
Light Rain
57°F / 14°C 55°F / 13°C 94% 30.18 in
(1022 mb)
SE 16.1 mph
(SE 26 kph)
0.02 in
(0.51 mm)
10SM
08:26
Mostly Cloudy
Fog And Mist
55°F / 13°C 55°F / 13°C 100% 30.18 in
(1022 mb)
SE 10.4 mph
(SE 17 kph)
0.02 in
(0.51 mm)
3SM
08:18
Overcast
Light Rain
55°F / 13°C 55°F / 13°C 100% 30.18 in
(1022 mb)
ESE 10.4 mph
(ESE 17 kph)
0.02 in
(0.51 mm)
3SM
08:08
Overcast
Light Rain
55°F / 13°C 55°F / 13°C 100% 30.18 in
(1022 mb)
E 11.5 mph
(E 19 kph)
0.02 in
(0.51 mm)
3SM
07:54
Overcast
Light Rain
54°F / 12°C 54°F / 12°C 100% 30.18 in
(1022 mb)
E 9.2 mph
(E 15 kph)
0.00 in
(0.00 mm)
3SM
07:52
Overcast
Light Rain
54°F / 12°C 54°F / 12°C 100% 30.18 in
(1022 mb)
ENE 9.2 mph
(ENE 15 kph)
0.21 in
(5.33 mm)
2SM
07:41
Overcast
Rain
54°F / 12°C 54°F / 12°C 100% 30.21 in
(1023 mb)
ENE 8.1 mph
(ENE 13 kph)
0.19 in
(4.83 mm)
2SM
07:10
Overcast
Rain
54°F / 12°C 54°F / 12°C 100% 30.24 in
(1024 mb)
W 3.5 mph
(W 6 kph)
0.03 in
(0.76 mm)
2SM
06:59
Overcast
Light Rain
54°F / 12°C 52°F / 11°C 94% 30.21 in
(1023 mb)
NE 5.8 mph
(NE 9 kph)
0.00 in
(0.00 mm)
3SM
06:52
Overcast
Light Rain
54°F / 12°C 52°F / 11°C 94% 30.21 in
(1023 mb)
NE 6.9 mph
(NE 11 kph)
0.14 in
(3.56 mm)
2SM
06:32
Overcast
Rain
54°F / 12°C 52°F / 11°C 94% 30.21 in
(1023 mb)
ENE 5.8 mph
(ENE 9 kph)
0.09 in
(2.29 mm)
2SM
05:59
Overcast
Light Rain
54°F / 12°C 50°F / 10°C 88% 30.21 in
(1023 mb)
ENE 5.8 mph
(ENE 9 kph)
0.00 in
(0.00 mm)
9SM
05:52
Overcast
Light Rain
54°F / 12°C 52°F / 11°C 94% 30.21 in
(1023 mb)
ENE 5.8 mph
(ENE 9 kph)
0.10 in
(2.54 mm)
10SM
05:44
Overcast
Light Rain
54°F / 12°C 50°F / 10°C 88% 30.18 in
(1022 mb)
ENE 5.8 mph
(ENE 9 kph)
0.10 in
(2.54 mm)
8SM
04:52
Overcast
55°F / 13°C 46°F / 8°C 72% 30.18 in
(1022 mb)
E 8.1 mph
(E 13 kph)
- 10SM
03:52
Overcast
55°F / 13°C 48°F / 9°C 77% 30.18 in
(1022 mb)
ESE 8.1 mph
(ESE 13 kph)
- 10SM
02:52
Mostly Cloudy
55°F / 13°C 48°F / 9°C 77% 30.15 in
(1021 mb)
E 9.2 mph
(E 15 kph)
- 10SM
01:52
Mostly Cloudy
55°F / 13°C 46°F / 8°C 72% 30.15 in
(1021 mb)
E 8.1 mph
(E 13 kph)
- 10SM
00:52
Mostly Cloudy
55°F / 13°C 48°F / 9°C 77% 30.15 in
(1021 mb)
E 9.2 mph
(E 15 kph)
- 10SM
Time Weather Temperature Dewpoint Humidity Pressure Winds Precip Visibility


Weather for websites

WeatherForYou.com, LLC is not responsible for any damages or problems caused by this service. Current weather conditions are obtained from the closest station including government and personal stations which may have varying degrees of accuracy. Weather forecasts are derived from the NOAA NDFD. Like all things, this site belongs to Jesus Christ... He just trusts us to maintain it. If you have any questions or comments email webmaster@weatherforyou.com

Copyright © 2015, WeatherForYou.com LLC. All rights reserved.